TimeEDT,TemperatureF,Dew PointF,Humidity,Sea Level PressureIn,VisibilityMPH,Wind Direction,Wind SpeedMPH,Gust SpeedMPH,PrecipitationIn,Events,Conditions,WindDirDegrees,DateUTC
12:54 AM,42.1,39.0,89,30.03,10.0,WSW,4.6,-,N/A,,Clear,240,2012-10-10 04:54:00
1:54 AM,42.1,39.0,89,30.02,10.0,SW,6.9,-,N/A,,Clear,220,2012-10-10 05:54:00
2:54 AM,41.0,37.9,89,30.00,10.0,SW,8.1,-,N/A,,Clear,230,2012-10-10 06:54:00
3:54 AM,42.1,39.0,89,29.98,10.0,SW,6.9,-,N/A,,Clear,220,2012-10-10 07:54:00
4:17 AM,42.8,41.0,93,29.96,10.0,SSW,5.8,-,N/A,,Mostly Cloudy,210,2012-10-10 08:17:00
4:54 AM,43.0,41.0,93,29.98,10.0,SW,6.9,-,N/A,,Overcast,230,2012-10-10 08:54:00
5:54 AM,44.1,41.0,89,29.97,10.0,SW,8.1,-,N/A,,Overcast,230,2012-10-10 09:54:00
6:54 AM,44.1,39.9,85,29.98,10.0,WSW,12.7,-,N/A,,Overcast,240,2012-10-10 10:54:00
7:54 AM,43.0,39.0,86,29.97,10.0,WSW,10.4,-,N/A,,Mostly Cloudy,250,2012-10-10 11:54:00
8:06 AM,42.8,39.2,87,29.94,10.0,SW,12.7,-,N/A,,Scattered Clouds,230,2012-10-10 12:06:00
8:54 AM,44.1,39.9,85,29.97,10.0,SW,11.5,-,N/A,,Partly Cloudy,230,2012-10-10 12:54:00
9:54 AM,48.0,41.0,77,29.97,10.0,SW,11.5,20.7,N/A,,Mostly Cloudy,230,2012-10-10 13:54:00
10:42 AM,50.0,41.0,71,29.93,10.0,SW,10.4,18.4,N/A,,Mostly Cloudy,230,2012-10-10 14:42:00
10:54 AM,50.0,42.1,74,29.95,10.0,WSW,13.8,-,N/A,,Mostly Cloudy,240,2012-10-10 14:54:00
11:54 AM,53.1,41.0,64,29.94,10.0,WSW,15.0,28.8,N/A,,Overcast,250,2012-10-10 15:54:00
12:10 PM,51.8,41.0,67,29.92,10.0,WSW,15.0,25.3,N/A,,Overcast,250,2012-10-10 16:10:00
12:54 PM,52.0,41.0,66,29.93,10.0,WSW,16.1,20.7,N/A,,Overcast,250,2012-10-10 16:54:00
1:20 PM,51.8,41.0,67,29.90,10.0,West,17.3,21.9,N/A,,Overcast,270,2012-10-10 17:20:00
1:54 PM,48.0,43.0,83,29.93,10.0,West,13.8,-,0.00,Rain,Light Rain,270,2012-10-10 17:54:00
2:10 PM,46.4,44.6,93,29.90,3.0,West,15.0,21.9,0.01,Rain,Rain,270,2012-10-10 18:10:00
2:16 PM,46.4,44.6,93,29.90,2.5,West,12.7,-,0.01,Rain,Light Rain,270,2012-10-10 18:16:00
2:23 PM,46.4,44.6,93,29.90,5.0,West,11.5,21.9,0.01,Rain,Light Rain,280,2012-10-10 18:23:00
2:39 PM,46.4,44.6,93,29.90,9.0,West,11.5,-,0.01,,Overcast,280,2012-10-10 18:39:00
2:54 PM,46.0,43.0,89,29.94,3.0,West,19.6,26.5,0.03,Rain,Light Rain,280,2012-10-10 18:54:00
3:44 PM,44.6,42.8,93,29.92,2.0,West,10.4,21.9,0.01,Rain,Rain,270,2012-10-10 19:44:00
3:54 PM,44.1,42.1,93,29.96,2.0,West,19.6,27.6,0.02,Rain,Light Rain,270,2012-10-10 19:54:00
4:07 PM,44.6,42.8,93,29.92,3.0,West,9.2,-,0.00,Rain,Light Rain,270,2012-10-10 20:07:00
4:09 PM,44.6,42.8,93,29.92,2.5,West,11.5,-,0.00,Rain,Light Rain,280,2012-10-10 20:09:00
4:22 PM,44.6,42.8,93,29.93,3.0,West,10.4,-,0.00,,Overcast,270,2012-10-10 20:22:00
4:35 PM,44.6,42.8,93,29.93,6.0,West,13.8,20.7,0.00,,Overcast,270,2012-10-10 20:35:00
4:52 PM,44.6,41.0,87,29.93,10.0,West,15.0,21.9,0.00,,Mostly Cloudy,270,2012-10-10 20:52:00
4:54 PM,45.0,41.0,86,29.96,10.0,West,12.7,21.9,0.00,,Mostly Cloudy,270,2012-10-10 20:54:00
5:40 PM,44.6,39.2,81,29.94,10.0,West,11.5,-,N/A,,Mostly Cloudy,280,2012-10-10 21:40:00
5:54 PM,45.0,37.9,76,29.98,10.0,WNW,12.7,23.0,N/A,,Mostly Cloudy,290,2012-10-10 21:54:00
6:54 PM,44.1,37.0,76,30.01,10.0,West,11.5,-,N/A,,Overcast,280,2012-10-10 22:54:00
7:54 PM,42.1,35.1,76,30.03,10.0,West,9.2,-,N/A,,Scattered Clouds,280,2012-10-10 23:54:00
8:54 PM,42.1,33.1,70,30.06,10.0,WNW,16.1,20.7,N/A,,Partly Cloudy,290,2012-10-11 00:54:00
9:54 PM,42.1,32.0,67,30.07,10.0,West,12.7,-,N/A,,Mostly Cloudy,270,2012-10-11 01:54:00
10:54 PM,42.1,30.9,65,30.11,10.0,WNW,13.8,24.2,N/A,,Overcast,290,2012-10-11 02:54:00
11:54 PM,39.9,28.9,65,30.12,10.0,WNW,16.1,27.6,N/A,,Overcast,290,2012-10-11 03:54:00